Theta_e
333 338 340 338 341 338 336 335 334 336 338 338 336 337 340 342 338 332 336 335 337 325 328 329 328 328 327 325 326 326 325 323 321 318 318 319 320 322 321 319 320 321 322 322 323 323 325 325 326
340 338 342 338 343 341 332 333 336 334 337 338 334 334 336 334 331 335 339 337 335 323 328 330 329 328 328 327 325 324 324 325 323 321 318 318 319 321 323 321 321 321 322 323 323 324 325 326 326
338 339 340 339 342 345 333 332 332 332 338 337 336 336 334 331 331 331 337 337 335 323 327 329 330 329 329 329 329 328 327 325 325 324 321 319 319 319 322 323 323 323 324 324 325 325 326 327 327
339 337 338 341 342 340 334 334 334 334 337 337 337 336 334 332 331 331 335 334 334 329 324 325 327 329 330 330 330 329 329 329 327 325 325 323 321 319 319 322 324 325 325 326 326 327 327 327 328
338 337 336 340 343 341 334 334 333 333 336 336 335 335 334 332 330 332 333 333 337 336 337 325 322 324 324 326 328 330 330 330 330 329 328 327 325 323 321 320 321 325 326 327 327 328 328 329 328
335 337 336 336 341 339 334 335 335 335 336 337 336 336 336 334 332 332 333 336 341 340 338 337 335 325 336 327 323 325 328 329 328 330 330 330 331 329 327 323 321 320 324 327 328 328 329 330 330
334 330 334 335 339 339 336 337 335 335 338 339 338 336 336 335 333 332 331 337 340 343 342 338 339 340 341 338 329 340 335 334 334 335 332 332 331 331 331 329 327 324 321 320 321 325 327 328 330
334 332 334 334 338 338 337 335 334 335 337 335 340 338 336 336 336 333 334 336 339 339 340 342 342 343 345 343 341 342 341 340 339 336 331 330 333 332 333 333 330 323 325 321 321 324 327 328 329
328 331 332 335 337 338 336 336 335 335 335 336 337 338 338 336 337 334 334 334 333 331 341 342 342 341 345 345 344 343 341 339 338 337 336 333 329 332 332 331 333 331 330 330 330 332 331 331 330
327 327 332 335 334 336 337 335 335 337 335 333 344 342 341 339 338 337 332 334 334 338 342 343 342 343 344 344 341 342 340 336 335 332 332 334 331 330 331 332 328 331 337 333 333 328 327 330 327
329 334 335 335 335 335 335 336 336 336 335 334 342 339 340 339 335 333 338 341 339 342 343 343 335 334 336 342 342 340 340 338 337 336 335 333 332 333 333 334 332 333 337 338 336 333 329 325 328
333 335 336 337 336 336 336 334 336 336 336 338 342 339 335 335 336 341 343 343 343 344 344 344 338 337 335 334 334 339 337 337 337 336 337 335 332 326 333 334 335 335 335 332 335 331 329 325 326
333 335 334 335 333 335 335 336 337 338 337 343 341 341 340 339 342 344 344 343 343 344 343 342 342 339 339 334 335 339 339 337 335 324 334 332 328 332 333 334 334 331 329 329 330 330 328 329 328
334 334 335 334 334 335 337 336 338 339 337 345 344 343 343 347 345 343 343 343 341 342 343 342 342 342 337 335 337 337 337 336 332 332 334 333 334 333 333 331 332 332 333 332 331 329 329 327 327
333 333 333 335 336 333 336 338 341 342 343 344 345 345 346 347 346 343 342 341 339 341 339 338 338 332 338 337 336 334 334 331 332 333 333 330 329 330 330 329 329 329 328 327 328 330 329 328 327
331 332 333 334 335 335 335 341 340 341 341 344 346 346 345 343 342 341 341 340 340 338 336 332 323 328 335 331 331 329 330 331 328 327 325 322 321 322 321 320 325 325 325 324 323 323 323 325 325
330 334 334 334 335 336 337 339 336 341 342 344 340 334 344 341 341 340 340 338 334 329 325 320 314 316 323 320 317 322 325 327 327 324 322 321 320 319 318 318 319 320 321 321 320 320 321 321 322
334 335 335 335 337 333 335 337 336 337 339 334 333 343 342 341 340 339 337 333 330 327 325 322 318 317 317 315 314 320 322 321 321 319 317 317 316 314 314 313 314 313 315 317 318 318 320 321 320
334 334 335 334 335 337 338 337 336 334 331 335 340 342 341 340 337 335 333 332 329 326 325 324 322 319 316 316 315 317 320 318 318 317 316 317 317 316 314 314 312 313 313 315 315 315 314 313 314
330 332 332 336 335 336 337 336 335 336 337 336 328 329 340 338 336 334 332 328 325 325 325 324 323 321 318 317 315 314 317 317 316 315 316 318 316 316 314 313 313 313 313 313 312 312 313 313 315
331 333 335 337 336 335 336 339 334 336 331 333 334 339 338 335 334 331 326 325 325 324 324 324 323 322 319 317 313 314 314 317 315 316 317 316 315 315 314 313 313 313 313 312 312 312 313 313 314
330 336 336 338 336 338 335 342 335 334 333 330 332 337 334 333 332 327 325 325 325 325 324 324 322 322 318 316 314 313 315 316 315 315 314 315 314 313 313 313 313 314 314 314 314 315 313 313 313
333 335 335 337 337 338 339 337 337 336 336 335 335 334 333 329 326 324 325 326 326 325 324 323 322 321 317 315 314 312 313 313 312 312 313 312 313 313 314 314 314 314 314 312 313 313 314 315 315
332 333 336 333 336 341 341 342 340 339 338 335 336 333 331 328 327 325 325 325 325 325 324 323 322 319 317 316 314 310 311 312 314 314 313 313 313 314 314 314 314 312 312 311 312 314 313 313 313
327 327 331 337 341 343 339 340 340 334 335 334 335 331 328 328 327 327 326 326 325 325 323 321 321 318 316 316 315 311 312 315 314 313 313 313 314 314 315 313 313 313 311 312 312 312 312 312 312
328 330 334 339 334 339 338 343 339 335 333 334 332 330 329 328 326 326 326 325 324 325 323 320 319 316 316 316 315 310 313 314 314 314 314 315 315 315 313 313 311 310 311 312 312 312 312 312 311
334 333 331 329 333 336 341 340 338 334 334 333 331 331 329 327 325 326 326 324 323 322 321 320 318 316 316 316 315 311 314 313 314 314 314 314 314 313 312 311 310 311 311 312 311 311 311 311 311
334 332 333 328 333 341 342 343 341 337 335 333 332 332 330 325 325 326 326 324 323 321 321 320 318 316 315 316 314 312 315 315 315 315 314 312 314 313 311 311 310 310 311 311 310 310 310 310 311
328 330 331 331 334 336 343 341 337 336 334 332 332 332 327 325 325 325 325 324 323 322 321 320 318 316 315 316 314 313 314 315 315 316 314 313 313 312 311 312 311 310 310 310 310 310 309 309 310
335 332 330 329 331 336 338 340 336 335 335 332 331 330 328 326 324 324 324 323 322 322 321 320 318 316 316 316 315 314 313 315 315 316 315 313 313 312 311 313 311 311 309 310 310 308 308 309 309
Wind_Speed
7 14 9 5 4 4 1 6 11 11 6 24 28 17 16 8 5 4 16 11 12 8 10 9 8 7 7 7 7 6 4 4 4 4 4 3 2 1 1 1 3 4 6 7 8 9 10 12 13
17 11 9 6 5 4 1 8 10 8 14 25 31 26 24 15 25 23 21 11 8 7 9 8 7 6 5 5 4 3 2 2 2 3 4 5 4 3 2 2 1 1 2 3 4 6 7 9 11
15 14 7 3 2 4 4 9 10 19 28 28 26 24 13 13 20 16 16 11 7 7 8 7 5 4 3 3 2 2 2 4 5 6 6 7 7 7 6 5 5 4 4 4 4 4 5 7 8
10 4 7 4 5 9 9 10 13 22 26 25 17 9 26 17 12 23 14 4 3 9 8 3 1 0 2 3 3 4 5 6 7 8 9 10 11 11 10 9 9 9 8 8 7 6 7 6 7
0 4 2 6 4 5 13 18 19 14 22 25 25 18 25 22 23 20 11 0 8 4 3 7 4 4 5 6 6 6 7 9 10 10 11 12 12 12 13 12 13 13 13 12 10 10 10 9 8
6 7 3 2 3 5 9 23 12 12 23 27 26 22 22 20 21 15 10 15 13 4 4 9 8 6 9 7 7 9 10 12 13 15 13 12 12 13 13 15 16 17 17 15 13 14 13 12 11
9 4 3 6 2 7 6 23 17 22 24 7 26 12 22 26 19 15 13 21 12 5 1 2 10 11 7 8 8 11 12 16 15 16 13 12 13 13 14 14 16 19 20 19 18 17 17 17 15
8 6 6 5 16 3 14 21 18 12 5 13 13 8 16 30 25 23 17 14 8 6 7 7 8 13 9 11 9 11 13 13 14 18 13 16 11 13 14 17 21 18 19 21 20 19 19 20 18
18 2 2 17 11 8 23 4 29 22 9 3 8 26 35 26 24 20 11 7 14 4 7 8 3 9 7 7 6 12 14 19 18 19 18 13 10 11 17 21 16 15 20 22 17 21 21 21 21
8 5 5 19 20 18 19 23 11 15 18 7 36 38 31 22 13 4 4 5 14 4 11 12 10 5 9 8 10 11 15 17 17 16 15 16 19 14 17 21 17 18 19 22 28 17 20 18 23
11 12 19 25 31 32 18 15 16 9 6 4 25 30 24 16 7 15 17 10 9 8 12 12 9 9 8 4 7 12 15 18 16 18 14 10 5 15 18 22 18 21 24 22 17 13 14 16 15
24 28 29 23 28 22 14 14 8 13 15 15 24 22 16 14 15 19 19 20 17 16 12 10 13 12 11 12 9 9 15 19 20 15 8 10 10 17 22 19 19 20 22 21 19 10 12 13 16
22 27 20 20 30 23 21 25 20 13 23 21 29 26 26 20 17 21 21 17 11 13 11 11 13 13 12 14 13 15 20 17 15 21 13 14 11 13 15 15 17 17 14 11 12 8 11 9 8
21 26 21 9 2 7 11 15 17 6 23 28 31 30 27 27 22 22 16 16 14 11 12 9 6 9 7 12 16 19 17 21 16 11 9 11 10 10 14 16 16 14 14 15 13 11 15 10 13
24 13 5 6 4 2 7 8 21 33 36 32 35 30 28 23 16 20 17 16 15 12 9 9 10 11 8 9 11 19 23 26 20 14 10 13 14 17 19 19 17 14 14 14 11 10 11 8 13
8 4 5 3 3 4 2 4 14 30 32 30 30 27 22 22 24 23 17 12 10 8 11 11 13 9 6 9 11 16 22 23 22 18 20 23 25 21 22 23 17 14 12 13 11 11 10 13 16
9 1 5 3 9 4 12 11 28 24 33 25 22 14 19 22 22 18 12 11 11 14 20 25 20 14 11 13 12 9 18 20 19 19 21 21 22 23 25 22 18 15 13 13 14 13 8 8 9
6 2 3 3 6 23 22 19 18 16 22 36 38 12 19 22 21 13 13 16 16 19 23 26 26 23 20 22 16 11 17 22 20 25 29 28 27 28 23 24 22 18 13 11 12 13 10 9 12
19 6 6 4 20 10 10 17 10 12 30 13 25 14 21 23 16 14 13 11 13 17 23 27 31 32 31 32 28 19 17 19 21 25 24 26 25 23 27 26 28 24 19 18 18 19 20 15 11
6 4 5 12 13 7 9 6 6 8 9 13 19 13 18 18 12 10 12 11 14 19 22 26 29 33 34 38 33 22 15 20 20 21 20 17 17 22 26 27 23 20 17 18 18 19 18 14 14
6 9 7 13 13 13 10 8 7 7 3 3 9 16 15 16 12 15 13 16 16 19 22 22 27 30 35 35 32 21 19 23 23 20 24 21 21 23 27 26 22 20 19 19 17 16 16 18 14
8 13 17 14 4 5 4 3 5 6 9 7 6 10 13 14 16 16 16 15 16 18 19 19 23 26 32 31 28 24 20 21 19 16 18 18 22 23 24 24 21 20 20 18 16 16 14 14 15
5 15 9 6 7 7 6 5 7 7 6 7 16 7 18 20 21 20 15 12 10 12 13 17 19 24 28 31 29 29 17 18 20 19 17 17 19 20 24 22 23 23 22 21 17 15 14 12 13
4 6 4 6 5 4 1 4 6 4 8 2 12 13 19 21 19 19 16 12 13 10 9 13 20 23 24 26 30 28 19 20 22 24 23 22 22 22 25 23 23 24 20 23 19 14 15 14 12
9 6 4 4 4 4 9 5 8 13 10 15 15 18 21 20 18 15 13 13 14 8 10 15 19 19 22 25 29 25 20 21 23 25 23 23 23 24 24 26 23 22 21 21 18 16 16 16 15
6 4 4 3 4 4 10 0 6 9 24 22 21 19 16 14 14 14 13 13 13 7 11 17 18 17 21 22 25 23 17 21 23 22 21 22 22 22 24 26 23 20 19 20 19 17 16 16 17
6 5 5 3 1 5 3 4 5 7 16 21 24 19 10 20 16 16 15 14 14 12 13 15 17 18 20 19 22 21 16 20 20 20 20 19 21 24 23 27 22 18 17 20 19 19 18 17 16
2 4 5 5 3 4 2 5 6 8 7 10 18 20 11 20 18 16 14 12 11 12 12 11 12 16 17 16 22 22 16 18 17 18 22 18 20 24 28 24 21 20 18 19 20 20 18 17 16
7 5 5 2 3 2 4 3 8 16 7 8 22 18 22 22 19 16 13 11 9 7 9 11 13 13 16 15 23 21 14 18 18 17 21 20 19 23 25 23 21 20 19 18 21 21 21 17 14
3 5 5 4 6 2 5 4 4 11 13 25 24 19 17 18 19 16 13 11 10 9 7 10 13 11 15 14 19 23 15 17 20 17 19 18 18 22 24 20 22 20 21 16 20 24 21 18 15
Wind_Direction
19 32 31 61 33 48 217 93 101 81 48 83 79 75 61 100 132 168 141 148 124 124 131 125 121 119 113 115 121 122 124 133 153 166 175 182 185 168 100 80 62 53 49 46 44 43 40 38 39
89 65 354 43 43 15 356 88 108 128 87 78 92 87 77 71 103 112 134 131 127 123 128 115 113 117 119 124 135 144 156 190 219 225 225 226 229 236 248 250 256 333 3 5 13 14 15 19 23
69 67 349 49 105 290 58 80 87 88 86 79 78 79 100 112 114 120 126 124 103 119 122 117 119 120 139 158 176 204 227 246 252 253 253 250 248 247 248 254 263 271 276 290 309 332 343 353 3
98 36 116 55 298 299 98 57 49 100 102 101 102 63 91 111 91 124 122 92 107 105 87 90 155 56 318 308 291 272 271 271 265 262 257 254 252 250 251 255 259 260 263 269 280 298 309 321 332
188 201 88 135 158 275 83 98 107 108 100 102 98 89 84 88 103 114 123 25 173 124 51 28 343 319 322 313 305 306 308 295 286 271 263 258 257 258 256 254 256 258 260 265 271 279 287 297 306
261 202 66 224 65 323 43 44 71 32 116 114 104 106 109 108 104 111 99 89 137 104 26 348 8 359 342 316 311 308 304 305 288 287 273 267 261 257 256 252 256 256 253 256 264 270 276 284 289
210 354 252 164 197 73 11 47 49 70 60 60 126 123 126 104 122 129 119 88 128 112 83 293 346 352 343 312 294 314 333 319 298 288 272 274 270 264 260 263 267 270 267 260 259 263 266 270 273
122 132 173 236 122 65 42 17 341 37 104 139 133 129 109 113 127 113 98 58 56 58 328 346 318 341 331 319 286 326 318 320 310 301 287 282 278 279 272 286 265 276 277 264 263 261 264 266 265
265 24 184 104 106 145 99 89 1 359 110 329 82 109 120 131 121 124 112 44 237 262 63 40 17 355 20 9 343 331 337 336 331 319 306 281 294 288 304 280 269 294 280 259 264 272 277 257 258
203 119 10 103 137 134 141 96 99 329 310 117 84 107 110 89 98 112 37 48 116 120 31 27 19 24 34 16 339 323 330 347 353 341 330 296 278 282 303 297 293 275 274 250 246 253 262 249 252
20 107 100 114 124 116 117 107 97 351 320 250 113 112 103 91 12 105 93 84 118 36 49 31 15 47 76 87 338 330 325 335 341 355 337 335 304 303 309 310 291 281 289 290 249 250 266 240 261
72 109 94 111 116 124 135 121 67 178 243 68 127 107 85 135 119 109 93 83 71 60 55 9 26 30 36 26 19 323 324 326 327 342 335 318 308 324 326 314 299 290 286 324 265 275 275 263 271
94 94 90 127 140 140 130 119 124 219 209 111 94 85 90 99 95 89 85 85 101 85 61 26 20 24 16 12 5 352 339 328 321 352 338 331 345 330 313 326 325 343 327 313 248 242 270 236 259
98 96 116 116 38 90 120 149 138 108 157 103 101 102 97 93 101 91 95 78 74 86 88 83 26 358 14 32 3 2 349 2 4 30 32 26 19 347 353 351 350 342 339 337 332 279 313 228 254
129 112 137 138 231 351 43 89 113 127 121 119 97 91 91 102 91 86 79 62 69 64 60 42 20 12 20 17 358 21 10 3 12 15 16 14 4 351 343 342 337 350 355 351 349 340 334 262 256
70 63 52 143 122 305 27 83 51 103 104 96 89 87 94 94 98 100 86 75 67 47 30 20 15 14 1 6 359 17 26 16 14 9 6 6 3 2 353 345 342 351 354 359 353 348 308 293 292
18 49 303 314 165 211 50 37 17 31 65 53 108 116 110 90 98 96 84 51 39 29 19 14 26 30 9 12 4 358 38 27 15 12 8 356 353 346 335 335 330 313 331 342 343 344 335 340 347
153 202 248 168 94 62 62 60 52 70 73 356 325 144 111 103 100 82 44 28 16 19 17 17 23 28 17 21 31 41 42 34 23 15 13 9 15 15 15 8 9 356 344 340 347 348 347 332 320
182 158 198 103 140 101 105 76 35 99 113 96 82 90 109 108 92 62 35 41 24 22 16 17 17 20 18 20 20 23 31 22 25 26 25 16 7 17 14 10 5 5 1 0 352 342 343 346 335
47 94 93 70 100 80 82 129 123 48 120 165 128 135 125 112 94 76 80 54 38 23 18 18 17 13 15 11 11 28 39 29 25 40 24 30 11 8 4 0 5 1 360 360 356 359 357 2 23
50 78 49 118 85 53 87 4 3 333 34 171 28 139 133 109 95 104 87 59 40 28 19 16 13 14 8 8 14 37 43 34 27 33 33 35 22 8 9 11 7 9 5 2 358 352 353 351 7
62 92 100 158 97 103 309 286 273 285 339 342 266 264 136 110 121 98 80 69 48 33 13 9 16 13 9 8 24 25 34 28 19 9 7 16 12 5 4 5 7 7 1 355 353 351 351 346 348
154 121 135 110 83 93 12 98 287 340 313 299 299 209 126 124 107 96 83 69 53 26 10 11 15 10 13 12 18 12 14 17 18 21 22 9 11 12 4 2 2 2 358 350 345 351 0 342 333
295 146 58 74 117 47 241 107 275 235 214 326 273 166 132 119 108 93 77 49 36 35 21 12 8 11 16 16 16 17 30 33 31 26 22 17 12 11 7 8 3 359 9 9 13 15 8 360 345
16 9 343 17 40 194 146 113 243 218 232 203 202 111 112 103 107 95 84 52 37 57 35 18 9 25 19 15 13 20 37 38 27 22 19 16 14 8 4 359 3 5 8 13 13 12 14 12 2
305 119 131 288 163 164 158 44 295 198 214 202 132 105 94 101 110 97 87 70 46 54 34 26 26 28 21 11 13 22 31 30 27 19 20 15 11 9 1 4 4 2 12 20 21 19 13 11 8
304 1 232 187 325 93 75 327 335 161 172 138 119 106 105 119 115 102 91 80 54 48 52 40 32 22 16 9 14 19 32 29 22 17 16 12 8 4 6 4 5 18 18 19 22 19 16 13 9
237 260 9 2 6 75 358 78 301 269 150 150 128 121 112 116 111 96 93 88 78 42 25 23 19 12 8 9 19 21 25 17 15 16 15 9 9 9 15 6 12 19 19 19 18 17 20 18 26
356 13 20 94 64 89 149 219 233 231 168 143 137 129 110 109 105 100 92 76 54 45 16 19 20 14 8 16 24 21 24 17 15 14 11 10 16 13 5 8 7 11 20 24 23 19 18 23 28
335 108 91 106 311 303 115 289 266 129 138 114 114 103 111 109 101 96 85 66 55 38 15 6 13 28 9 13 19 16 28 15 19 18 8 5 14 12 8 12 7 15 21 24 24 20 20 25 29